Weather in Vishnevka

Russia / Volgograd Oblast     49°25′37″N   46°46′18″E
temp.,
°C
wind,
m/s
gust,
m/s
humid.,
%
clouds,
%
prec.,
mm/h
press.,
hPa
HPBL,
m
25 february, thu
thu2500:00−19nw248394 0.0 1039164
03:00−19wnw128094 0.0 1039104
06:00−18wsw247981 0.0 1038159
09:00−16sw357190 0.0 1037257
12:00−12ssw5865100 0.0 1034448
15:00−11ssw71189100 0.1 1031623
18:00−10ssw91493100 1.4 1027683
21:00−9sw101694100 2.5 1024644
26 february, fri
fri2600:00−8sw91694100 2.3 1020591
03:00−6sw71294100 3.5 1018415
06:00−3wsw4996100 0.1 1016233
09:000w4796100 0.1 1016232
12:00+1w47100100 0.0 1015250
15:00+2w47100100 0.0 1015156
18:00+1wsw5898100 0.4 1014211
21:00+2wsw5998100 0.6 1013210
27 february, sat
sat2700:00+2wsw71397100 0.1 1010366
03:00+2wsw71496100 0.2 1009441
06:00+2w71496100 0.1 1008438
09:00+2w61198100 0.1 1008339
12:00+2w610100100 0.0 1007550
15:00+2wsw51195100 0.0 1006468
18:00+1wsw41094100 0.0 1006310
21:000wsw4992100 0.0 1006193
28 february, sun
sun2800:00−1wsw599689 0.0 1006254
03:00−1wsw6109490 0.0 1006413
06:00−1wsw51093100 0.0 1006319
09:000wsw6109299 0.1 1007457
12:00−1wnw6884100 0.2 1008474
15:00−3wnw787697 0.2 1009818
18:00−5nw6881100 0.1 1011743
21:00−7nw6985100 0.1 1014623
1 march, mon
mon100:00−8nw6987100 0.1 1016496
03:00−10nnw6886100 0.1 1018497
06:00−11nnw688397 0.0 1019502
09:00−11nnw577989 0.0 1021519
12:00−10nnw677691 0.0 1023599
15:00−9nnw677795 0.0 1024633
18:00−10nnw5781100 0.0 1025604
21:00−11nnw468178 0.0 1028488